QPF
0.00 0.00 0.00 0.00 0.00 0.00 0.00 0.00 0.00 0.00 0.00 0.00 0.00 0.00 0.00 0.00 0.00 0.00 0.00 0.00 0.00 0.00 0.00 0.00 0.00 0.01 0.02 0.02 0.02 0.02 0.01 0.02 0.02 0.02 0.01 0.01 0.00 0.00 0.01 0.01 0.03 0.03 0.03
0.00 0.00 0.00 0.00 0.00 0.00 0.00 0.00 0.00 0.00 0.00 0.00 0.00 0.00 0.00 0.00 0.00 0.00 0.00 0.00 0.00 0.00 0.00 0.00 0.00 0.01 0.01 0.02 0.02 0.02 0.02 0.02 0.02 0.02 0.01 0.01 0.01 0.01 0.01 0.02 0.05 0.06 0.04
0.00 0.00 0.00 0.00 0.00 0.00 0.00 0.00 0.00 0.00 0.00 0.00 0.00 0.00 0.00 0.00 0.00 0.00 0.00 0.00 0.00 0.00 0.00 0.00 0.00 0.01 0.01 0.02 0.02 0.02 0.02 0.02 0.02 0.02 0.02 0.01 0.01 0.01 0.01 0.02 0.07 0.07 0.04
0.00 0.00 0.00 0.00 0.00 0.00 0.00 0.00 0.00 0.00 0.00 0.00 0.00 0.00 0.00 0.00 0.00 0.00 0.00 0.00 0.00 0.00 0.00 0.00 0.00 0.01 0.01 0.02 0.02 0.03 0.03 0.04 0.04 0.04 0.02 0.01 0.01 0.01 0.01 0.03 0.09 0.06 0.04
0.00 0.00 0.00 0.00 0.00 0.00 0.00 0.00 0.00 0.00 0.00 0.00 0.00 0.00 0.00 0.00 0.00 0.00 0.00 0.00 0.00 0.00 0.00 0.00 0.00 0.01 0.01 0.02 0.03 0.03 0.03 0.03 0.04 0.03 0.02 0.01 0.01 0.02 0.02 0.05 0.08 0.05 0.04
0.00 0.00 0.00 0.00 0.00 0.00 0.00 0.00 0.00 0.00 0.00 0.00 0.00 0.00 0.00 0.00 0.00 0.01 0.01 0.00 0.00 0.00 0.00 0.00 0.00 0.01 0.01 0.02 0.02 0.03 0.04 0.04 0.03 0.03 0.03 0.02 0.02 0.03 0.04 0.05 0.05 0.05 0.05
0.00 0.00 0.00 0.00 0.00 0.00 0.00 0.00 0.00 0.00 0.00 0.00 0.00 0.00 0.00 0.00 0.00 0.01 0.01 0.00 0.00 0.00 0.00 0.00 0.00 0.01 0.01 0.01 0.02 0.03 0.03 0.03 0.03 0.03 0.02 0.02 0.02 0.03 0.06 0.05 0.04 0.04 0.04
0.00 0.00 0.00 0.00 0.00 0.00 0.00 0.00 0.00 0.00 0.00 0.00 0.00 0.00 0.00 0.00 0.00 0.00 0.01 0.00 0.00 0.00 0.00 0.00 0.00 0.01 0.01 0.02 0.03 0.03 0.03 0.03 0.03 0.02 0.02 0.02 0.02 0.04 0.06 0.06 0.05 0.05 0.03
0.00 0.00 0.00 0.00 0.00 0.00 0.00 0.00 0.00 0.00 0.00 0.00 0.00 0.00 0.00 0.00 0.00 0.01 0.01 0.00 0.00 0.00 0.00 0.00 0.00 0.01 0.01 0.03 0.03 0.03 0.03 0.03 0.03 0.03 0.03 0.03 0.04 0.05 0.07 0.07 0.06 0.06 0.05
0.00 0.00 0.00 0.00 0.00 0.00 0.00 0.00 0.00 0.00 0.00 0.00 0.00 0.00 0.00 0.00 0.00 0.01 0.01 0.01 0.01 0.00 0.00 0.00 0.01 0.01 0.02 0.02 0.03 0.03 0.03 0.03 0.03 0.03 0.02 0.02 0.03 0.03 0.05 0.06 0.07 0.07 0.06
0.00 0.00 0.00 0.00 0.00 0.00 0.00 0.00 0.00 0.00 0.00 0.00 0.00 0.00 0.00 0.00 0.01 0.01 0.01 0.01 0.01 0.01 0.00 0.00 0.01 0.02 0.02 0.02 0.03 0.03 0.04 0.03 0.03 0.03 0.02 0.01 0.02 0.03 0.04 0.05 0.06 0.07 0.07
0.00 0.01 0.01 0.00 0.00 0.00 0.00 0.00 0.00 0.00 0.00 0.00 0.00 0.00 0.00 0.00 0.01 0.01 0.02 0.02 0.01 0.01 0.01 0.01 0.01 0.01 0.02 0.02 0.03 0.03 0.04 0.03 0.03 0.03 0.02 0.02 0.02 0.03 0.04 0.05 0.05 0.05 0.05
0.00 0.01 0.01 0.00 0.00 0.00 0.00 0.00 0.01 0.01 0.01 0.00 0.00 0.00 0.00 0.00 0.01 0.01 0.01 0.01 0.01 0.01 0.01 0.01 0.01 0.01 0.02 0.02 0.02 0.02 0.03 0.03 0.03 0.03 0.03 0.03 0.03 0.03 0.04 0.04 0.04 0.04 0.04
0.00 0.01 0.01 0.01 0.00 0.00 0.00 0.01 0.01 0.01 0.01 0.01 0.00 0.00 0.00 0.01 0.01 0.01 0.01 0.01 0.01 0.01 0.01 0.01 0.01 0.01 0.01 0.02 0.02 0.02 0.03 0.03 0.03 0.03 0.03 0.03 0.02 0.03 0.03 0.03 0.03 0.04 0.04
0.00 0.01 0.01 0.00 0.00 0.00 0.00 0.00 0.00 0.00 0.01 0.01 0.01 0.01 0.01 0.02 0.02 0.02 0.01 0.01 0.01 0.01 0.01 0.01 0.01 0.01 0.02 0.02 0.03 0.02 0.03 0.03 0.03 0.03 0.02 0.02 0.02 0.03 0.03 0.03 0.03 0.03 0.04
0.01 0.01 0.01 0.00 0.00 0.00 0.00 0.00 0.00 0.00 0.01 0.01 0.01 0.01 0.01 0.02 0.02 0.02 0.01 0.01 0.01 0.01 0.01 0.01 0.01 0.01 0.01 0.02 0.03 0.03 0.03 0.03 0.03 0.03 0.02 0.02 0.03 0.03 0.03 0.02 0.03 0.04 0.04
0.01 0.01 0.01 0.00 0.00 0.00 0.00 0.00 0.00 0.00 0.00 0.00 0.01 0.01 0.01 0.02 0.03 0.02 0.02 0.01 0.01 0.01 0.01 0.01 0.01 0.01 0.01 0.01 0.02 0.03 0.03 0.03 0.03 0.03 0.03 0.03 0.03 0.03 0.03 0.03 0.03 0.04 0.04
0.01 0.01 0.01 0.01 0.00 0.00 0.00 0.00 0.00 0.00 0.00 0.00 0.00 0.00 0.01 0.01 0.02 0.02 0.02 0.02 0.01 0.01 0.01 0.01 0.01 0.01 0.02 0.01 0.02 0.02 0.03 0.03 0.03 0.03 0.03 0.03 0.03 0.03 0.03 0.03 0.03 0.04 0.04
0.01 0.01 0.01 0.01 0.01 0.00 0.00 0.00 0.00 0.00 0.00 0.00 0.00 0.00 0.01 0.01 0.01 0.01 0.01 0.01 0.02 0.01 0.02 0.02 0.02 0.02 0.02 0.02 0.02 0.02 0.03 0.03 0.03 0.03 0.03 0.03 0.03 0.03 0.03 0.03 0.04 0.04 0.04
0.00 0.00 0.01 0.01 0.00 0.00 0.00 0.00 0.00 0.00 0.00 0.00 0.00 0.00 0.01 0.01 0.01 0.01 0.01 0.01 0.01 0.01 0.02 0.02 0.02 0.02 0.03 0.03 0.03 0.03 0.03 0.03 0.03 0.04 0.03 0.03 0.03 0.03 0.03 0.03 0.04 0.04 0.04
0.00 0.00 0.00 0.00 0.00 0.00 0.00 0.00 0.00 0.01 0.01 0.01 0.01 0.01 0.01 0.01 0.01 0.01 0.01 0.01 0.01 0.02 0.02 0.02 0.02 0.02 0.02 0.03 0.03 0.03 0.03 0.03 0.03 0.03 0.03 0.04 0.04 0.04 0.04 0.04 0.04 0.04 0.03
0.01 0.01 0.00 0.01 0.01 0.01 0.01 0.01 0.01 0.01 0.01 0.01 0.01 0.01 0.01 0.01 0.01 0.01 0.02 0.02 0.02 0.02 0.02 0.03 0.03 0.03 0.03 0.03 0.03 0.03 0.03 0.03 0.03 0.04 0.04 0.04 0.04 0.05 0.05 0.04 0.04 0.03 0.03
0.01 0.01 0.01 0.01 0.01 0.01 0.01 0.01 0.01 0.01 0.01 0.01 0.01 0.01 0.01 0.01 0.01 0.01 0.02 0.02 0.02 0.02 0.02 0.03 0.03 0.03 0.03 0.03 0.03 0.03 0.03 0.03 0.04 0.04 0.04 0.04 0.04 0.04 0.04 0.03 0.03 0.02 0.02
0.01 0.01 0.01 0.01 0.01 0.01 0.01 0.01 0.01 0.01 0.01 0.01 0.01 0.01 0.01 0.01 0.02 0.02 0.03 0.03 0.03 0.03 0.03 0.03 0.03 0.03 0.03 0.04 0.04 0.04 0.04 0.04 0.03 0.03 0.04 0.04 0.04 0.03 0.02 0.02 0.02 0.02 0.02
0.01 0.01 0.01 0.01 0.01 0.01 0.01 0.01 0.01 0.01 0.01 0.01 0.01 0.01 0.01 0.01 0.02 0.02 0.03 0.03 0.03 0.03 0.03 0.03 0.03 0.04 0.04 0.04 0.04 0.04 0.04 0.03 0.03 0.03 0.03 0.03 0.02 0.02 0.01 0.01 0.01 0.01 0.01
0.01 0.01 0.01 0.01 0.01 0.01 0.01 0.01 0.01 0.01 0.01 0.01 0.01 0.01 0.01 0.01 0.01 0.02 0.02 0.02 0.03 0.03 0.03 0.03 0.04 0.04 0.04 0.04 0.04 0.04 0.04 0.03 0.03 0.03 0.03 0.02 0.02 0.02 0.01 0.01 0.01 0.01 0.01
MSLP
1006.54 1007.71 1008.83 1009.86 1010.80 1011.68 1012.53 1013.39 1014.29 1015.25 1016.26 1017.30 1018.32 1019.29 1020.19 1020.98 1021.68 1022.29 1022.84 1023.36 1023.87 1024.39 1024.91 1025.42 1025.89 1026.29 1026.61 1026.83 1026.95 1026.98 1026.94 1026.82 1026.64 1026.38 1026.04 1025.58 1025.01 1024.30 1023.47 1022.54 1021.54 1020.52 1019.52
1005.82 1006.96 1008.07 1009.11 1010.06 1010.96 1011.83 1012.71 1013.63 1014.60 1015.62 1016.65 1017.68 1018.66 1019.57 1020.39 1021.12 1021.78 1022.38 1022.95 1023.51 1024.07 1024.61 1025.13 1025.60 1026.00 1026.31 1026.53 1026.66 1026.72 1026.70 1026.63 1026.50 1026.31 1026.02 1025.62 1025.10 1024.43 1023.63 1022.72 1021.73 1020.70 1019.68
1005.40 1006.48 1007.54 1008.55 1009.49 1010.38 1011.25 1012.13 1013.04 1014.00 1014.99 1016.01 1017.02 1017.99 1018.90 1019.73 1020.50 1021.20 1021.85 1022.48 1023.09 1023.69 1024.26 1024.80 1025.28 1025.67 1025.98 1026.20 1026.34 1026.40 1026.42 1026.39 1026.31 1026.18 1025.97 1025.64 1025.19 1024.59 1023.85 1022.98 1022.02 1021.00 1019.97
1005.32 1006.30 1007.27 1008.21 1009.10 1009.96 1010.80 1011.64 1012.52 1013.44 1014.40 1015.38 1016.35 1017.29 1018.18 1019.02 1019.81 1020.54 1021.25 1021.93 1022.60 1023.25 1023.87 1024.43 1024.92 1025.32 1025.63 1025.84 1025.98 1026.05 1026.09 1026.09 1026.07 1026.00 1025.86 1025.62 1025.26 1024.76 1024.10 1023.30 1022.39 1021.40 1020.37
1005.59 1006.43 1007.28 1008.12 1008.92 1009.70 1010.47 1011.27 1012.09 1012.96 1013.85 1014.77 1015.69 1016.59 1017.46 1018.28 1019.08 1019.84 1020.59 1021.32 1022.05 1022.75 1023.40 1024.00 1024.50 1024.92 1025.23 1025.44 1025.57 1025.66 1025.71 1025.74 1025.76 1025.75 1025.69 1025.54 1025.28 1024.88 1024.32 1023.61 1022.77 1021.83 1020.82
1006.18 1006.86 1007.56 1008.25 1008.94 1009.62 1010.30 1011.01 1011.76 1012.56 1013.38 1014.23 1015.08 1015.93 1016.75 1017.55 1018.34 1019.11 1019.88 1020.66 1021.42 1022.16 1022.85 1023.48 1024.01 1024.44 1024.76 1024.97 1025.12 1025.21 1025.28 1025.33 1025.39 1025.44 1025.44 1025.39 1025.22 1024.93 1024.48 1023.88 1023.12 1022.25 1021.27
1007.04 1007.55 1008.08 1008.62 1009.16 1009.72 1010.30 1010.92 1011.58 1012.28 1013.02 1013.79 1014.57 1015.34 1016.11 1016.87 1017.62 1018.39 1019.16 1019.95 1020.73 1021.50 1022.22 1022.87 1023.43 1023.88 1024.21 1024.45 1024.60 1024.71 1024.80 1024.88 1024.98 1025.07 1025.14 1025.16 1025.09 1024.90 1024.56 1024.07 1023.41 1022.62 1021.71
1008.10 1008.44 1008.81 1009.20 1009.60 1010.02 1010.48 1011.00 1011.56 1012.17 1012.82 1013.50 1014.19 1014.89 1015.58 1016.28 1016.99 1017.72 1018.47 1019.24 1020.02 1020.80 1021.53 1022.20 1022.77 1023.24 1023.61 1023.87 1024.05 1024.19 1024.31 1024.42 1024.55 1024.69 1024.81 1024.89 1024.90 1024.80 1024.56 1024.17 1023.62 1022.92 1022.09
1009.28 1009.48 1009.71 1009.95 1010.21 1010.51 1010.86 1011.27 1011.74 1012.26 1012.82 1013.40 1014.00 1014.61 1015.22 1015.84 1016.48 1017.15 1017.85 1018.59 1019.35 1020.10 1020.83 1021.51 1022.10 1022.60 1022.99 1023.29 1023.52 1023.69 1023.85 1024.00 1024.16 1024.33 1024.49 1024.62 1024.69 1024.66 1024.50 1024.20 1023.75 1023.14 1022.41
1010.50 1010.60 1010.70 1010.82 1010.97 1011.17 1011.43 1011.74 1012.12 1012.55 1013.01 1013.50 1014.01 1014.52 1015.04 1015.57 1016.13 1016.73 1017.37 1018.05 1018.76 1019.48 1020.19 1020.86 1021.46 1021.99 1022.42 1022.76 1023.04 1023.26 1023.46 1023.65 1023.85 1024.05 1024.24 1024.39 1024.49 1024.50 1024.40 1024.17 1023.80 1023.29 1022.65
1011.69 1011.71 1011.73 1011.77 1011.84 1011.96 1012.14 1012.38 1012.67 1013.02 1013.40 1013.80 1014.21 1014.62 1015.05 1015.49 1015.97 1016.48 1017.04 1017.66 1018.31 1018.99 1019.66 1020.32 1020.92 1021.46 1021.93 1022.32 1022.65 1022.93 1023.18 1023.41 1023.64 1023.86 1024.06 1024.22 1024.33 1024.36 1024.29 1024.11 1023.80 1023.37 1022.82
1012.78 1012.75 1012.73 1012.72 1012.74 1012.81 1012.94 1013.12 1013.34 1013.61 1013.91 1014.23 1014.55 1014.88 1015.22 1015.58 1015.97 1016.40 1016.89 1017.43 1018.02 1018.64 1019.28 1019.91 1020.51 1021.06 1021.56 1021.99 1022.37 1022.70 1023.00 1023.27 1023.52 1023.75 1023.95 1024.11 1024.21 1024.24 1024.17 1024.01 1023.74 1023.37 1022.90
1013.70 1013.66 1013.63 1013.60 1013.61 1013.65 1013.74 1013.87 1014.05 1014.25 1014.48 1014.72 1014.96 1015.21 1015.48 1015.76 1016.08 1016.44 1016.86 1017.33 1017.86 1018.43 1019.03 1019.62 1020.21 1020.77 1021.28 1021.75 1022.17 1022.55 1022.89 1023.19 1023.46 1023.70 1023.89 1024.03 1024.11 1024.12 1024.04 1023.88 1023.63 1023.30 1022.89
1014.41 1014.38 1014.35 1014.33 1014.34 1014.38 1014.45 1014.55 1014.68 1014.83 1015.00 1015.17 1015.35 1015.53 1015.73 1015.96 1016.22 1016.53 1016.89 1017.31 1017.79 1018.31 1018.86 1019.42 1019.98 1020.53 1021.06 1021.54 1022.00 1022.41 1022.78 1023.11 1023.40 1023.64 1023.82 1023.94 1023.99 1023.98 1023.88 1023.71 1023.48 1023.17 1022.80
1014.86 1014.85 1014.85 1014.86 1014.88 1014.93 1014.99 1015.07 1015.16 1015.26 1015.37 1015.48 1015.60 1015.74 1015.89 1016.07 1016.30 1016.57 1016.90 1017.28 1017.71 1018.19 1018.69 1019.22 1019.76 1020.29 1020.81 1021.31 1021.78 1022.21 1022.61 1022.96 1023.26 1023.51 1023.69 1023.80 1023.83 1023.79 1023.68 1023.51 1023.27 1022.99 1022.66
1015.03 1015.05 1015.08 1015.12 1015.17 1015.23 1015.28 1015.34 1015.40 1015.46 1015.52 1015.58 1015.65 1015.75 1015.87 1016.03 1016.24 1016.49 1016.80 1017.15 1017.56 1018.00 1018.47 1018.96 1019.46 1019.97 1020.48 1020.97 1021.45 1021.90 1022.32 1022.69 1023.01 1023.27 1023.46 1023.56 1023.60 1023.55 1023.44 1023.27 1023.04 1022.78 1022.49
1014.94 1014.99 1015.05 1015.13 1015.20 1015.26 1015.31 1015.35 1015.38 1015.40 1015.41 1015.44 1015.48 1015.55 1015.65 1015.80 1016.00 1016.24 1016.54 1016.88 1017.26 1017.68 1018.12 1018.57 1019.05 1019.53 1020.02 1020.50 1020.98 1021.44 1021.88 1022.28 1022.62 1022.90 1023.11 1023.23 1023.28 1023.25 1023.16 1023.00 1022.81 1022.58 1022.33
1014.62 1014.70 1014.80 1014.89 1014.98 1015.05 1015.10 1015.12 1015.11 1015.10 1015.08 1015.07 1015.08 1015.13 1015.23 1015.38 1015.58 1015.83 1016.12 1016.46 1016.82 1017.21 1017.63 1018.05 1018.50 1018.95 1019.42 1019.89 1020.37 1020.84 1021.30 1021.72 1022.09 1022.40 1022.64 1022.81 1022.89 1022.90 1022.84 1022.73 1022.58 1022.40 1022.20
1014.11 1014.22 1014.34 1014.47 1014.57 1014.64 1014.68 1014.68 1014.65 1014.61 1014.56 1014.53 1014.53 1014.57 1014.67 1014.82 1015.02 1015.28 1015.57 1015.90 1016.26 1016.63 1017.01 1017.41 1017.83 1018.26 1018.71 1019.17 1019.65 1020.13 1020.60 1021.05 1021.46 1021.81 1022.09 1022.30 1022.43 1022.49 1022.49 1022.44 1022.34 1022.23 1022.09
1013.47 1013.60 1013.75 1013.89 1014.00 1014.08 1014.11 1014.10 1014.06 1014.00 1013.94 1013.89 1013.89 1013.93 1014.03 1014.18 1014.39 1014.65 1014.95 1015.27 1015.61 1015.96 1016.33 1016.70 1017.09 1017.50 1017.93 1018.39 1018.87 1019.35 1019.84 1020.31 1020.75 1021.14 1021.47 1021.73 1021.92 1022.04 1022.10 1022.11 1022.09 1022.05 1021.99
1012.72 1012.88 1013.05 1013.20 1013.33 1013.41 1013.44 1013.43 1013.39 1013.33 1013.27 1013.22 1013.22 1013.27 1013.38 1013.54 1013.75 1014.01 1014.30 1014.62 1014.94 1015.28 1015.62 1015.97 1016.34 1016.73 1017.14 1017.59 1018.07 1018.56 1019.06 1019.55 1020.01 1020.43 1020.80 1021.11 1021.35 1021.53 1021.65 1021.74 1021.79 1021.83 1021.85
1011.89 1012.07 1012.26 1012.43 1012.57 1012.66 1012.71 1012.71 1012.68 1012.63 1012.59 1012.56 1012.58 1012.64 1012.76 1012.93 1013.15 1013.40 1013.69 1013.99 1014.29 1014.60 1014.92 1015.26 1015.60 1015.98 1016.38 1016.82 1017.29 1017.78 1018.28 1018.78 1019.26 1019.70 1020.10 1020.44 1020.72 1020.95 1021.13 1021.29 1021.41 1021.53 1021.64
1010.96 1011.16 1011.37 1011.56 1011.72 1011.84 1011.91 1011.94 1011.94 1011.92 1011.91 1011.92 1011.97 1012.05 1012.19 1012.37 1012.59 1012.84 1013.11 1013.39 1013.68 1013.97 1014.27 1014.58 1014.92 1015.27 1015.67 1016.09 1016.55 1017.04 1017.54 1018.03 1018.51 1018.96 1019.37 1019.73 1020.04 1020.31 1020.54 1020.75 1020.95 1021.14 1021.32
1009.93 1010.15 1010.38 1010.59 1010.77 1010.92 1011.02 1011.09 1011.14 1011.17 1011.21 1011.27 1011.35 1011.47 1011.63 1011.83 1012.05 1012.30 1012.56 1012.83 1013.10 1013.37 1013.65 1013.95 1014.27 1014.62 1015.01 1015.43 1015.88 1016.35 1016.83 1017.32 1017.79 1018.23 1018.64 1019.00 1019.33 1019.62 1019.89 1020.15 1020.40 1020.66 1020.92
1008.79 1009.02 1009.26 1009.49 1009.70 1009.88 1010.02 1010.15 1010.25 1010.35 1010.45 1010.56 1010.70 1010.86 1011.05 1011.27 1011.50 1011.75 1012.00 1012.26 1012.52 1012.78 1013.06 1013.36 1013.67 1014.02 1014.40 1014.81 1015.25 1015.72 1016.19 1016.65 1017.10 1017.53 1017.93 1018.29 1018.62 1018.94 1019.24 1019.53 1019.84 1020.15 1020.48
1007.53 1007.77 1008.02 1008.26 1008.50 1008.72 1008.91 1009.09 1009.26 1009.43 1009.60 1009.78 1009.97 1010.18 1010.41 1010.65 1010.90 1011.15 1011.40 1011.66 1011.92 1012.19 1012.48 1012.78 1013.10 1013.46 1013.84 1014.26 1014.69 1015.15 1015.60 1016.05 1016.48 1016.89 1017.28 1017.63 1017.97 1018.29 1018.62 1018.95 1019.29 1019.66 1020.05
Thickness
5554 5552 5550 5547 5545 5543 5540 5538 5535 5532 5529 5526 5523 5521 5518 5515 5512 5508 5505 5501 5498 5494 5491 5488 5486 5483 5480 5476 5473 5469 5466 5462 5464 5472 5470 5468 5466 5465 5465 5463 5461 5461 5460
5545 5543 5540 5537 5535 5533 5530 5528 5525 5522 5520 5517 5514 5511 5508 5506 5503 5499 5495 5492 5489 5485 5482 5479 5477 5475 5472 5469 5466 5463 5460 5457 5455 5460 5462 5460 5458 5457 5457 5456 5456 5455 5454
5534 5532 5529 5527 5525 5523 5521 5518 5515 5513 5510 5508 5505 5502 5499 5496 5493 5490 5487 5483 5480 5477 5474 5471 5469 5466 5464 5461 5458 5456 5453 5452 5449 5449 5452 5452 5451 5450 5449 5450 5449 5449 5449
5523 5522 5519 5517 5515 5513 5511 5508 5506 5503 5501 5498 5496 5493 5490 5487 5484 5481 5478 5475 5471 5468 5465 5463 5460 5458 5456 5454 5452 5450 5447 5445 5443 5442 5444 5444 5443 5443 5441 5442 5444 5443 5443
5512 5510 5508 5507 5504 5502 5500 5497 5495 5493 5491 5488 5486 5483 5480 5477 5475 5472 5470 5467 5463 5460 5457 5454 5452 5450 5449 5447 5445 5443 5440 5438 5437 5436 5436 5437 5436 5436 5434 5433 5434 5436 5438
5499 5498 5497 5495 5493 5491 5489 5486 5484 5482 5480 5477 5475 5472 5469 5467 5466 5464 5461 5458 5454 5451 5448 5447 5444 5443 5441 5440 5439 5437 5434 5432 5430 5429 5429 5428 5429 5428 5427 5427 5426 5427 5431
5487 5485 5484 5483 5481 5479 5477 5475 5473 5470 5468 5466 5464 5461 5459 5457 5457 5455 5453 5449 5445 5442 5440 5438 5437 5435 5434 5433 5432 5431 5428 5425 5423 5421 5421 5421 5421 5421 5420 5421 5420 5419 5420
5474 5473 5472 5471 5469 5467 5465 5463 5461 5459 5457 5455 5453 5451 5449 5447 5446 5445 5443 5440 5436 5434 5431 5429 5428 5427 5426 5426 5426 5424 5422 5420 5417 5415 5415 5415 5415 5416 5415 5414 5414 5414 5416
5461 5460 5460 5459 5457 5455 5453 5451 5449 5448 5446 5444 5442 5440 5438 5437 5436 5435 5433 5430 5428 5425 5424 5421 5420 5419 5420 5420 5418 5417 5416 5415 5413 5411 5411 5410 5411 5411 5410 5410 5409 5409 5412
5448 5448 5447 5446 5445 5443 5441 5439 5438 5437 5435 5434 5432 5429 5428 5426 5425 5424 5423 5421 5419 5417 5416 5414 5413 5412 5413 5412 5410 5408 5408 5408 5407 5407 5406 5406 5406 5406 5405 5404 5403 5403 5404
5435 5435 5435 5434 5433 5431 5430 5428 5427 5425 5423 5422 5421 5419 5417 5416 5415 5414 5413 5411 5409 5408 5407 5406 5405 5405 5405 5404 5402 5401 5400 5400 5400 5399 5399 5400 5401 5401 5400 5399 5399 5398 5398
5422 5422 5422 5421 5420 5420 5418 5416 5415 5413 5411 5410 5409 5408 5407 5405 5405 5404 5404 5403 5401 5399 5398 5397 5397 5397 5397 5396 5395 5394 5394 5393 5392 5392 5393 5394 5395 5395 5394 5394 5394 5393 5393
5409 5409 5409 5408 5408 5407 5406 5404 5402 5401 5400 5399 5398 5397 5397 5396 5395 5395 5395 5394 5393 5391 5390 5390 5389 5388 5388 5387 5387 5387 5386 5384 5384 5385 5386 5386 5387 5388 5389 5389 5389 5388 5389
5396 5396 5396 5396 5395 5394 5394 5393 5391 5390 5389 5389 5388 5387 5386 5386 5385 5385 5385 5384 5384 5382 5381 5381 5381 5380 5379 5379 5379 5379 5378 5377 5378 5378 5378 5379 5381 5382 5383 5383 5383 5383 5384
5383 5383 5383 5383 5383 5382 5382 5381 5380 5380 5379 5379 5378 5377 5376 5376 5376 5377 5376 5376 5375 5374 5374 5373 5372 5372 5372 5371 5371 5370 5371 5371 5371 5371 5372 5373 5374 5376 5377 5377 5377 5377 5377
5370 5370 5371 5371 5371 5371 5370 5370 5370 5370 5370 5370 5369 5368 5368 5368 5369 5369 5369 5368 5368 5367 5366 5365 5364 5363 5363 5363 5363 5363 5363 5364 5365 5365 5366 5367 5368 5369 5371 5372 5372 5372 5373
5357 5358 5358 5359 5359 5359 5359 5359 5359 5359 5360 5360 5359 5359 5360 5360 5360 5360 5360 5360 5359 5359 5357 5356 5355 5355 5355 5355 5355 5356 5356 5357 5358 5359 5360 5362 5363 5364 5365 5367 5368 5369 5369
5345 5346 5347 5347 5347 5348 5348 5348 5347 5347 5348 5348 5349 5349 5350 5351 5351 5351 5351 5350 5349 5349 5348 5348 5348 5348 5348 5349 5349 5350 5350 5351 5352 5353 5355 5356 5357 5358 5361 5363 5364 5365 5365
5333 5334 5335 5335 5336 5337 5337 5337 5336 5337 5337 5337 5338 5339 5340 5340 5341 5341 5340 5339 5339 5340 5340 5340 5340 5341 5342 5342 5343 5344 5345 5346 5347 5348 5350 5351 5352 5354 5356 5359 5361 5363 5364
5321 5324 5325 5325 5325 5326 5326 5326 5326 5326 5326 5327 5327 5328 5328 5329 5329 5330 5330 5330 5331 5332 5332 5333 5334 5334 5335 5336 5338 5339 5341 5342 5344 5345 5347 5348 5350 5352 5354 5356 5358 5360 5362
5310 5311 5313 5314 5314 5314 5315 5315 5315 5316 5316 5317 5317 5318 5319 5319 5319 5320 5320 5321 5322 5323 5325 5326 5328 5329 5330 5332 5333 5335 5337 5340 5342 5344 5346 5348 5350 5352 5354 5355 5357 5359 5361
5300 5301 5301 5302 5302 5303 5304 5305 5305 5306 5306 5307 5307 5308 5310 5310 5310 5311 5313 5314 5315 5316 5318 5320 5323 5324 5326 5328 5330 5332 5335 5338 5341 5343 5346 5348 5349 5351 5353 5355 5356 5358 5360
5291 5291 5292 5292 5293 5294 5295 5295 5296 5296 5297 5297 5298 5299 5300 5301 5303 5304 5306 5307 5309 5311 5313 5315 5318 5321 5323 5326 5329 5331 5334 5338 5340 5343 5345 5347 5349 5351 5353 5354 5357 5358 5360
5283 5283 5283 5283 5284 5284 5285 5286 5287 5288 5288 5289 5290 5291 5293 5294 5296 5298 5300 5302 5304 5306 5309 5312 5315 5318 5322 5325 5329 5332 5335 5338 5340 5343 5345 5347 5349 5351 5353 5355 5357 5359 5361
5275 5275 5275 5275 5275 5276 5277 5278 5279 5279 5281 5282 5283 5285 5287 5289 5291 5293 5295 5298 5300 5303 5306 5309 5313 5317 5321 5325 5329 5332 5335 5338 5341 5343 5346 5347 5349 5351 5353 5355 5357 5359 5360
5268 5268 5268 5268 5268 5269 5269 5270 5272 5273 5274 5276 5278 5280 5282 5284 5287 5289 5292 5294 5297 5301 5304 5308 5312 5316 5320 5324 5328 5332 5336 5339 5342 5344 5346 5347 5349 5351 5353 5355 5357 5359 5360